Weather History for MMOX - November, 2012

Change the Weather History Date:

Monday, November 19, 2012

  Actual Average Record
Temperature  
Mean Temperature 65 °F -  
Max Temperature 82 °F 78 °F 86 °F (2013)
Min Temperature 48 °F 48 °F 42 °F (1996)
Growing Degree Days 15 (Base 50)    
Moisture  
Dew Point 44 °F    
Average Humidity 49    
Maximum Humidity 93    
Minimum Humidity 15    
Precipitation  
Precipitation 0.00 in - - ()
Sea Level Pressure  
Sea Level Pressure 30.15 in    
Wind  
Wind Speed 5 mph ()    
Max Wind Speed 18 mph    
Max Gust Speed -    
Visibility 10.0 miles    
Events      
Averages and records for this station are not official NWS values.
T = Trace of Precipitation, MM = Missing Value Source: Averaged Metar Reports

Daily Weather History Graph

Daily Weather History Graph

Search for Another Location

Airport or City:

Trip Planner

Search our weather history database for the weather conditions in past years. The results will help you decide how hot, cold, wet, or windy it might be!

Date:

Astronomy

Nov. 19, 2012 Rise Set
Actual Time 6:33 AM CST 5:51 PM CST
Civil Twilight 6:10 AM CST 6:14 PM CST
Nautical Twilight 5:44 AM CST 6:40 PM CST
Astronomical Twilight 5:18 AM CST 7:06 PM CST
Moon 11:56 AM CST (11/19) 11:55 PM CST (11/19)
Length of Visible Light 12h 03m
Length of Day
11h 17m
Waxing Crescent, 41% of the Moon is Illuminated
Nov 19
Waxing Crescent
Nov 20
First Quarter
Nov 28
Full
Dec 6
Last Quarter
Dec 13
New

Hourly Weather History & Observations

Time (CST) Temp. Dew Point Humidity Pressure Visibility Wind Dir Wind Speed Gust Speed Precip Events Conditions
6:21 AM 44.6 °F 42.8 °F 93% 30.28 in 7.0 mi Calm Calm - N/A   Clear
6:44 AM 46.4 °F 44.6 °F 93% 30.33 in 7.0 mi Calm Calm - N/A   Clear
7:46 AM 51.8 °F 48.2 °F 88% 30.34 in 7.0 mi North 2.3 mph - N/A   Clear
8:40 AM 61 °F 50 °F 57% 30.20 in 7 mi NE 2.2 mph - -   Partly Cloudy
8:43 AM 59.0 °F 50.0 °F 72% 30.10 in 7.0 mi North 4.6 mph - N/A   Clear
9:42 AM 64.4 °F 48.2 °F 56% 30.34 in 10.0 mi NNW 6.9 mph - N/A   Clear
10:47 AM 68.0 °F 44.6 °F 43% 30.33 in 10.0 mi NW 6.9 mph - N/A   Clear
11:35 AM 76 °F 48 °F 26% 30.12 in 12 mi North 2.2 mph - -   Partly Cloudy
11:49 AM 69.8 °F 44.6 °F 40% 30.01 in 10.0 mi WNW 5.8 mph - N/A   Clear
12:45 PM 73.4 °F 41.0 °F 31% 30.25 in 10.0 mi SSW 4.6 mph - N/A   Clear
1:43 PM 75.2 °F 41.0 °F 29% 30.21 in 15.0 mi North 11.5 mph - N/A   Clear
2:46 PM 75.2 °F 37.4 °F 25% 29.91 in 15.0 mi NNE 8.1 mph - N/A   Clear
2:50 PM 81 °F 42 °F 15% 29.94 in 12 mi NNW 4.5 mph - -   Clear
3:43 PM 77.0 °F 42.8 °F 29% 30.16 in 15.0 mi NW 11.5 mph - N/A   Clear
4:41 PM 73.4 °F 44.6 °F 36% 30.16 in 15.0 mi NNW 15.0 mph - N/A   Clear
5:45 PM 68.0 °F 44.6 °F 43% 29.98 in 12.0 mi NW 17.3 mph - N/A   Clear
5:50 PM 69 °F 43 °F 27% 29.90 in 12 mi NNW 13.4 mph - -   Clear
6:45 PM 64.4 °F 44.6 °F 49% 30.22 in 10.0 mi NW 18.4 mph - N/A   Clear
7:41 PM 60.8 °F 44.6 °F 55% 30.25 in 8.0 mi NW 10.4 mph - N/A   Clear
8:40 PM 61 °F 44 °F 42% 29.97 in 6 mi NNW 4.5 mph - -   Partly Cloudy
8:45 PM 59.0 °F 44.6 °F 59% 30.07 in 8.0 mi NNW 8.1 mph - N/A   Clear
9:41 PM 55.4 °F 44.6 °F 67% 30.29 in 8.0 mi North 8.1 mph - N/A   Clear
11:40 PM 56 °F 41 °F 47% 30.01 in 6 mi NE 2.2 mph - -   Partly Cloudy